Weather History for KEYW - April, 2014

Change the Weather History Date:

Sunday, April 13, 2014

  Actual Average Record
Temperature  
Mean Temperature 77 °F 76 °F  
Max Temperature 82 °F 81 °F 88 °F (1926)
Min Temperature 72 °F 71 °F 60 °F (1940)
Degree Days  
Heating Degree Days 0 0  
Month to date heating degree days 0 0  
Since 1 July heating degree days 22 73  
Cooling Degree Days 12 11  
Month to date cooling degree days 150 136  
Year to date cooling degree days 853 746  
Growing Degree Days 27 (Base 50)    
Moisture  
Dew Point 68 °F    
Average Humidity 76    
Maximum Humidity 90    
Minimum Humidity 62    
Precipitation  
Precipitation 0.00 in 0.06 in 1.89 in (2004)
Month to date precipitation 0.47 0.87  
Year to date precipitation 11.85 6.45  
Snow  
Snow 0.00 in - - ()
Month to date snowfall 0.0  
Since 1 July snowfall 0.0  
Snow Depth 0.00 in    
Sea Level Pressure  
Sea Level Pressure 30.03 in    
Wind  
Wind Speed 8 mph (East)    
Max Wind Speed 12 mph    
Max Gust Speed 17 mph    
Visibility 10 miles    
Events      
T = Trace of Precipitation, MM = Missing Value Source: NWS Daily Summary

Daily Weather History Graph

Daily Weather History Graph

Search for Another Location

Airport or City:

Trip Planner

Search our weather history database for the weather conditions in past years. The results will help you decide how hot, cold, wet, or windy it might be!

Date:

Astronomy

Apr. 13, 2014 Rise Set
Actual Time 7:07 AM EDT 7:48 PM EDT
Civil Twilight 6:43 AM EDT 8:11 PM EDT
Nautical Twilight 6:16 AM EDT 8:38 PM EDT
Astronomical Twilight 5:48 AM EDT 9:06 PM EDT
Moon 6:32 PM EDT (4/13) 5:54 AM EDT (4/13)
Length of Visible Light 13h 27m
Length of Day
12h 41m
Waxing Gibbous, 97% of the Moon is Illuminated
Apr 13
Waxing Gibbous
Apr 15
Full
Apr 22
Last Quarter
Apr 29
New
May 6
First Quarter

Hourly Weather History & Observations

Time (EDT) Temp. Heat Index Dew Point Humidity Pressure Visibility Wind Dir Wind Speed Gust Speed Precip Events Conditions
12:53 AM 73.9 °F - 66.9 °F 79% 30.07 in 10.0 mi ENE 6.9 mph - N/A   Partly Cloudy
1:53 AM 73.9 °F - 66.9 °F 79% 30.05 in 10.0 mi ENE 6.9 mph - N/A   Clear
2:53 AM 73.0 °F - 66.9 °F 81% 30.04 in 10.0 mi ENE 8.1 mph - N/A   Clear
3:53 AM 73.0 °F - 66.9 °F 81% 30.03 in 10.0 mi ENE 6.9 mph - N/A   Clear
4:53 AM 73.0 °F - 66.9 °F 81% 30.03 in 10.0 mi East 4.6 mph - N/A   Clear
5:53 AM 72.0 °F - 66.9 °F 84% 30.04 in 10.0 mi NE 5.8 mph - N/A   Clear
6:53 AM 72.0 °F - 68.0 °F 87% 30.05 in 10.0 mi East 5.8 mph - N/A   Clear
7:53 AM 73.0 °F - 69.1 °F 87% 30.06 in 10.0 mi ENE 5.8 mph - N/A   Clear
8:53 AM 75.9 °F - 69.1 °F 79% 30.07 in 10.0 mi NE 6.9 mph - N/A   Clear
9:53 AM 78.1 °F - 70.0 °F 76% 30.08 in 10.0 mi ENE 9.2 mph - N/A   Partly Cloudy
10:53 AM 79.0 °F - 70.0 °F 74% 30.08 in 10.0 mi Variable 6.9 mph - N/A   Scattered Clouds
11:53 AM 80.1 °F 82.7 °F 68.0 °F 67% 30.07 in 10.0 mi East 10.4 mph - N/A   Clear
12:53 PM 81.0 °F 83.8 °F 68.0 °F 65% 30.06 in 10.0 mi East 10.4 mph - N/A   Clear
1:53 PM 81.0 °F 83.3 °F 66.9 °F 62% 30.05 in 10.0 mi East 6.9 mph - N/A   Clear
2:53 PM 82.0 °F 84.9 °F 68.0 °F 62% 30.03 in 10.0 mi East 9.2 mph - N/A   Clear
3:53 PM 82.0 °F 85.5 °F 69.1 °F 65% 30.01 in 10.0 mi ESE 9.2 mph - N/A   Clear
4:53 PM 81.0 °F 84.1 °F 69.1 °F 67% 29.99 in 10.0 mi ESE 8.1 mph - N/A   Clear
5:53 PM 80.1 °F 82.9 °F 69.1 °F 69% 29.99 in 10.0 mi ESE 10.4 mph - N/A   Clear
6:53 PM 78.1 °F - 69.1 °F 74% 29.98 in 10.0 mi East 8.1 mph - N/A   Clear
7:53 PM 77.0 °F - 69.8 °F 78% 29.97 in 10.0 mi East 5.8 mph - N/A   Clear
8:53 PM 75.9 °F - 69.1 °F 79% 29.99 in 10.0 mi East 8.1 mph - N/A   Clear
9:53 PM 75.9 °F - 69.1 °F 79% 29.99 in 10.0 mi East 8.1 mph - N/A   Clear
10:53 PM 75.9 °F - 69.1 °F 79% 30.00 in 10.0 mi East 8.1 mph - N/A   Clear
11:53 PM 75.9 °F - 69.1 °F 79% 30.00 in 10.0 mi East 8.1 mph - N/A   Clear